When you browse on this site, cookies collect data to enhance your experience and personalize the content and advertising you see.
Visit our Privacy Policy to learn more. By continuing to use the site, you agree to this use of cookies and data.
  • In Switzerland
  • List of Countries
  • For 7 days
  • Water Temperature
  • Satellite Maps
  • Weather Map
  • Weather Widgets
  • user-avatar
    Login

    Hourly Weather Malanje

    Today, 21 March, Thursday

    Time Temperature Precipitation Wind Pressure Humidity
    00:00 +20°C° 0 mm 1 mps 664 mmHg 95%
    01:00 +20°C° 0 mm 1 mps 664 mmHg 95%
    02:00 +20°C° 0.4 mm 1 mps 664 mmHg 96%
    03:00 +20°C° 0.4 mm 1 mps 664 mmHg 97%
    04:00 +20°C° 0.4 mm 1 mps 664 mmHg 98%
    05:00 +20°C° 0.3 mm 1 mps 664 mmHg 97%
    06:00 +20°C° 0.3 mm 1 mps 665 mmHg 97%
    07:00 +20°C° 0.3 mm 1 mps 665 mmHg 96%
    08:00 +22°C° 0.1 mm 1 mps 666 mmHg 92%
    09:00 +23°C° 0.1 mm 1 mps 666 mmHg 88%
    10:00 +25°C° 0.1 mm 1 mps 666 mmHg 84%
    11:00 +26°C° 0.1 mm 1 mps 666 mmHg 76%
    12:00 +28°C° 0.1 mm 1 mps 666 mmHg 67%
    13:00 +29°C° 0.1 mm 1 mps 666 mmHg 58%
    14:00 +29°C° 0 mm 1 mps 665 mmHg 62%
    15:00 +28°C° 0 mm 1 mps 664 mmHg 65%
    16:00 +28°C° 0 mm 1 mps 664 mmHg 68%
    17:00 +26°C° 0.2 mm 1 mps 664 mmHg 72%
    18:00 +25°C° 0.2 mm 1 mps 664 mmHg 77%
    19:00 +23°C° 0.2 mm 1 mps 664 mmHg 81%
    20:00 +23°C° 0 mm 1 mps 664 mmHg 81%
    21:00 +23°C° 0 mm 1 mps 665 mmHg 82%
    22:00 +22°C° 0 mm 1 mps 665 mmHg 83%
    23:00 +22°C° 0 mm 1 mps 665 mmHg 84%

    Tomorrow, 22 March, Friday

    Time Temperature Precipitation Wind Pressure Humidity
    00:00 +21°C° 0 mm 1 mps 664 mmHg 84%
    01:00 +21°C° 0 mm 1 mps 664 mmHg 85%
    02:00 +20°C° 0 mm 1 mps 664 mmHg 87%
    03:00 +20°C° 0 mm 1 mps 663 mmHg 89%
    04:00 +19°C° 0 mm 1 mps 663 mmHg 91%
    05:00 +20°C° 0 mm 1 mps 663 mmHg 90%
    06:00 +20°C° 0 mm 1 mps 664 mmHg 90%
    07:00 +20°C° 0 mm 1 mps 664 mmHg 89%
    08:00 +23°C° 0 mm 1 mps 665 mmHg 80%
    09:00 +26°C° 0 mm 1 mps 666 mmHg 71%
    10:00 +28°C° 0 mm 1 mps 667 mmHg 63%
    11:00 +30°C° 0 mm 1 mps 666 mmHg 58%
    12:00 +32°C° 0 mm 1 mps 666 mmHg 53%
    13:00 +31°C° 0 mm 0 mps 666 mmHg 49%
    14:00 +31°C° 0 mm 0 mps 665 mmHg 50%
    15:00 +30°C° 0 mm 0 mps 665 mmHg 51%
    16:00 +29°C° 0 mm 0 mps 664 mmHg 52%
    17:00 +27°C° 0 mm 0 mps 664 mmHg 57%
    18:00 +25°C° 0 mm 0 mps 664 mmHg 62%
    19:00 +23°C° 0 mm 0 mps 664 mmHg 66%
    20:00 +22°C° 0 mm 0 mps 664 mmHg 68%
    21:00 +22°C° 0 mm 0 mps 665 mmHg 70%
    22:00 +23°C° 0 mm 1 mps 665 mmHg 72%
    23:00 +22°C° 0.1 mm 1 mps 665 mmHg 77%

    Day after tomorrow, 23 March, Saturday

    Time Temperature Precipitation Wind Pressure Humidity
    00:00 +22°C° 0.1 mm 1 mps 664 mmHg 83%
    01:00 +21°C° 0.1 mm 1 mps 664 mmHg 88%
    02:00 +21°C° 0.3 mm 1 mps 664 mmHg 91%
    03:00 +20°C° 0.3 mm 1 mps 664 mmHg 95%
    04:00 +20°C° 0.3 mm 1 mps 663 mmHg 98%
    05:00 +20°C° 0.1 mm 1 mps 664 mmHg 97%
    06:00 +21°C° 0.1 mm 1 mps 665 mmHg 96%
    07:00 +21°C° 0.1 mm 1 mps 665 mmHg 95%
    08:00 +23°C° 0.2 mm 1 mps 666 mmHg 88%
    09:00 +25°C° 0.2 mm 1 mps 666 mmHg 81%
    10:00 +27°C° 0.2 mm 1 mps 667 mmHg 74%
    11:00 +28°C° 1.1 mm 1 mps 666 mmHg 71%
    12:00 +28°C° 1.1 mm 1 mps 665 mmHg 68%
    13:00 +29°C° 1.1 mm 1 mps 664 mmHg 66%
    14:00 +29°C° 0 mm 1 mps 664 mmHg 64%
    15:00 +29°C° 0 mm 1 mps 664 mmHg 63%
    16:00 +29°C° 0 mm 1 mps 664 mmHg 61%
    17:00 +27°C° 0.4 mm 1 mps 664 mmHg 68%
    18:00 +26°C° 0.4 mm 1 mps 664 mmHg 75%
    19:00 +24°C° 0.4 mm 1 mps 664 mmHg 82%
    20:00 +23°C° 0.3 mm 1 mps 664 mmHg 87%
    21:00 +22°C° 0.3 mm 1 mps 664 mmHg 91%
    22:00 +21°C° 0.3 mm 1 mps 664 mmHg 96%
    23:00 +21°C° 0.3 mm 2 mps 664 mmHg 96%

    24 March, Sunday

    Time Temperature Precipitation Wind Pressure Humidity
    00:00 +21°C° 0.3 mm 3 mps 664 mmHg 96%
    01:00 +21°C° 0.3 mm 3 mps 664 mmHg 96%
    02:00 +21°C° 0.1 mm 3 mps 664 mmHg 96%
    03:00 +21°C° 0.1 mm 3 mps 663 mmHg 96%
    04:00 +20°C° 0.1 mm 3 mps 663 mmHg 96%
    05:00 +20°C° 0.9 mm 3 mps 664 mmHg 96%
    06:00 +20°C° 0.9 mm 3 mps 664 mmHg 95%
    07:00 +20°C° 0.9 mm 3 mps 665 mmHg 95%
    08:00 +21°C° 1.2 mm 3 mps 665 mmHg 93%
    09:00 +22°C° 1.2 mm 3 mps 665 mmHg 91%
    10:00 +24°C° 1.2 mm 2 mps 666 mmHg 90%
    11:00 +25°C° 0.8 mm 2 mps 665 mmHg 85%
    12:00 +26°C° 0.8 mm 2 mps 665 mmHg 80%
    13:00 +27°C° 0.8 mm 2 mps 664 mmHg 75%
    14:00 +27°C° 0.4 mm 2 mps 664 mmHg 77%
    15:00 +27°C° 0.4 mm 2 mps 664 mmHg 78%
    16:00 +26°C° 0.4 mm 2 mps 663 mmHg 79%
    17:00 +25°C° 0.5 mm 2 mps 664 mmHg 84%
    18:00 +23°C° 0.5 mm 2 mps 664 mmHg 90%
    19:00 +21°C° 0.5 mm 2 mps 664 mmHg 95%
    20:00 +20°C° 0.1 mm 2 mps 664 mmHg 96%
    21:00 +20°C° 0.1 mm 2 mps 665 mmHg 97%
    22:00 +20°C° 0.1 mm 2 mps 665 mmHg 98%
    23:00 +20°C° 0 mm 2 mps 665 mmHg 98%

    25 March, Monday

    Time Temperature Precipitation Wind Pressure Humidity
    00:00 +20°C° 0 mm 2 mps 664 mmHg 98%
    01:00 +20°C° 0 mm 2 mps 664 mmHg 98%
    02:00 +20°C° 0 mm 2 mps 664 mmHg 98%
    03:00 +21°C° 0 mm 1 mps 664 mmHg 98%
    04:00 +21°C° 0 mm 1 mps 663 mmHg 98%
    05:00 +21°C° 0 mm 1 mps 664 mmHg 98%
    06:00 +21°C° 0 mm 1 mps 664 mmHg 98%
    07:00 +21°C° 0 mm 1 mps 665 mmHg 98%
    08:00 +22°C° 0.9 mm 1 mps 665 mmHg 94%
    09:00 +24°C° 0.9 mm 1 mps 666 mmHg 90%
    10:00 +25°C° 0.9 mm 1 mps 666 mmHg 86%
    11:00 +26°C° 1.4 mm 1 mps 666 mmHg 83%
    12:00 +26°C° 1.4 mm 1 mps 665 mmHg 80%
    13:00 +27°C° 1.4 mm 2 mps 665 mmHg 77%
    14:00 +26°C° 1.4 mm 1 mps 664 mmHg 82%
    15:00 +25°C° 1.4 mm 1 mps 664 mmHg 86%
    16:00 +24°C° 1.4 mm 1 mps 663 mmHg 91%
    17:00 +23°C° 0.8 mm 1 mps 664 mmHg 92%
    18:00 +22°C° 0.8 mm 1 mps 664 mmHg 93%
    19:00 +21°C° 0.8 mm 1 mps 665 mmHg 94%
    20:00 +21°C° 0.1 mm 1 mps 665 mmHg 95%
    21:00 +21°C° 0.1 mm 1 mps 665 mmHg 95%
    22:00 +20°C° 0.1 mm 1 mps 665 mmHg 96%
    23:00 +20°C° 0 mm 1 mps 665 mmHg 96%

    26 March, Tuesday

    Time Temperature Precipitation Wind Pressure Humidity
    00:00 +20°C° 0 mm 1 mps 665 mmHg 97%
    01:00 +18°C° 0 mm 0 mps 664 mmHg 97%
    02:00 +18°C° 0 mm 0 mps 664 mmHg 97%
    03:00 +18°C° 0 mm 0 mps 664 mmHg 97%
    04:00 +18°C° 0 mm 0 mps 663 mmHg 96%
    05:00 +18°C° 0 mm 0 mps 664 mmHg 96%
    06:00 +20°C° 0 mm 1 mps 665 mmHg 95%
    07:00 +20°C° 0 mm 1 mps 665 mmHg 95%
    08:00 +23°C° 0 mm 1 mps 666 mmHg 87%
    09:00 +25°C° 0 mm 1 mps 667 mmHg 78%
    10:00 +27°C° 0 mm 1 mps 668 mmHg 70%
    11:00 +27°C° 0.5 mm 1 mps 667 mmHg 69%
    12:00 +27°C° 0.5 mm 1 mps 666 mmHg 68%
    13:00 +28°C° 0.5 mm 1 mps 665 mmHg 67%
    14:00 +28°C° 0 mm 1 mps 665 mmHg 68%
    15:00 +28°C° 0 mm 1 mps 665 mmHg 69%
    16:00 +28°C° 0 mm 1 mps 665 mmHg 71%
    17:00 +26°C° 0.1 mm 1 mps 665 mmHg 75%
    18:00 +25°C° 0.1 mm 1 mps 665 mmHg 79%
    19:00 +21°C° 0.1 mm 0 mps 665 mmHg 83%
    20:00 +21°C° 0 mm 0 mps 665 mmHg 84%
    21:00 +23°C° 0 mm 1 mps 666 mmHg 85%
    22:00 +22°C° 0 mm 1 mps 666 mmHg 86%
    23:00 +22°C° 0 mm 1 mps 666 mmHg 89%
    Show more